sat.trackr.live / text

‹ back to catalog

STARLINK-30855

NORAD 58222 · 2023-170S

PAYLOAD ACTIVE UNKNOWN

§ Identity

Operator
Country
US
Launch date
2023-11-03
Launch site
AFETR
Launch vehicle
Mass (kg)
RCS (m²)

Purposes: comms

External: N2YO · Heavens-Above · Gunter

§ Orbital elements

Epoch: 2026-05-24T23:30:57.254112Z

Period
94.27 min
Inclination
43.0030°
Eccentricity
0.0001620
Mean motion
15.27580037 rev/d
Perigee alt
481.9 km
Apogee alt
484.2 km
Semi-major
6,861.2 km
B*
4.5828e-5
RAAN
123.6477°
Arg perigee
270.4937°
Mean anomaly
89.5729°
Rev number
14,196

§ Raw data

STARLINK-308551 58222U 23170S   26144.97982933  .00000999  00000+0  45828-4 0  99962 58222  43.0030 123.6477 0001620 270.4937  89.5729 15.27580037141961

JSON: /api/v1/satellites/58222 · /tle

For live sub-satellite position, see the globe view (requires WebGL).

§ Visibility from observer

Set your observer location to see the next 7 days of passes ≥ 10°. The values pass through the URL so the page stays shareable.

No JS? Fill the form by hand. The geolocation button needs JavaScript.